Time,TemperatureF,DewpointF,PressureIn,WindDirection,WindDirectionDegrees,WindSpeedMPH,WindSpeedGustMPH,Humidity,HourlyPrecipIn,Conditions,Clouds,dailyrainin,SoftwareType,DateUTC
2013-06-19 00:11:00,71.0,66.0,30.01,SSE,163,0.0,0.0,85,0.00,,,0.00,,2013-06-19 05:11:00,
2013-06-19 00:22:00,72.0,67.0,30.01,SE,129,0.0,2.0,83,0.00,,,0.00,,2013-06-19 05:22:00,
2013-06-19 00:32:00,72.0,67.0,30.01,SE,129,0.0,2.0,83,0.00,,,0.00,,2013-06-19 05:32:00,
2013-06-19 00:42:00,72.0,66.0,30.01,SE,129,0.0,0.0,82,0.00,,,0.00,,2013-06-19 05:42:00,
2013-06-19 00:52:00,71.0,67.0,30.01,SE,129,0.0,0.0,87,0.00,,,0.00,,2013-06-19 05:52:00,
2013-06-19 01:01:00,71.0,67.0,30.01,SE,129,0.0,0.0,87,0.00,,,0.00,,2013-06-19 06:01:00,
2013-06-19 01:11:00,70.0,66.0,30.01,SE,129,0.0,0.0,88,0.00,,,0.00,,2013-06-19 06:11:00,
2013-06-19 01:21:00,69.0,66.0,30.01,SE,130,0.0,0.0,89,0.00,,,0.00,,2013-06-19 06:21:00,
2013-06-19 01:33:00,69.0,66.0,30.01,SE,130,0.0,0.0,89,0.00,,,0.00,,2013-06-19 06:33:00,
2013-06-19 01:42:00,68.0,65.0,30.00,SE,129,0.0,0.0,90,0.00,,,0.00,,2013-06-19 06:42:00,
2013-06-19 01:52:00,68.0,65.0,30.01,SE,130,0.0,0.0,91,0.00,,,0.00,,2013-06-19 06:52:00,
2013-06-19 02:01:00,68.0,65.0,30.01,SE,130,0.0,0.0,91,0.00,,,0.00,,2013-06-19 07:01:00,
2013-06-19 02:11:00,68.0,65.0,30.01,SE,129,0.0,0.0,91,0.00,,,0.00,,2013-06-19 07:11:00,
2013-06-19 02:22:00,67.0,65.0,30.02,SE,129,0.0,0.0,92,0.00,,,0.00,,2013-06-19 07:22:00,
2013-06-19 02:33:00,67.0,65.0,30.02,SE,129,0.0,0.0,92,0.00,,,0.00,,2013-06-19 07:33:00,
2013-06-19 02:43:00,67.0,65.0,30.01,SE,129,0.0,0.0,92,0.00,,,0.00,,2013-06-19 07:43:00,
2013-06-19 02:53:00,66.0,64.0,30.01,SE,130,0.0,0.0,93,0.00,,,0.00,,2013-06-19 07:53:00,
2013-06-19 03:02:00,66.0,64.0,30.01,SE,130,0.0,0.0,93,0.00,,,0.00,,2013-06-19 08:02:00,
2013-06-19 03:11:00,66.0,64.0,30.01,SE,129,0.0,0.0,93,0.00,,,0.00,,2013-06-19 08:11:00,
2013-06-19 03:22:00,66.0,64.0,30.01,SE,129,0.0,0.0,93,0.00,,,0.00,,2013-06-19 08:22:00,
2013-06-19 03:33:00,66.0,64.0,30.01,SE,129,0.0,0.0,93,0.00,,,0.00,,2013-06-19 08:33:00,
2013-06-19 03:43:00,66.0,64.0,30.01,SE,129,0.0,0.0,94,0.00,,,0.00,,2013-06-19 08:43:00,
2013-06-19 03:53:00,66.0,64.0,30.00,SE,130,0.0,0.0,94,0.00,,,0.00,,2013-06-19 08:53:00,
2013-06-19 04:02:00,66.0,64.0,30.00,SE,130,0.0,0.0,94,0.00,,,0.00,,2013-06-19 09:02:00,
2013-06-19 04:11:00,65.0,63.0,30.00,SE,129,0.0,0.0,94,0.00,,,0.00,,2013-06-19 09:11:00,
2013-06-19 04:22:00,65.0,63.0,30.01,SE,130,0.0,0.0,94,0.00,,,0.00,,2013-06-19 09:22:00,
2013-06-19 04:34:00,65.0,63.0,30.01,SE,130,0.0,0.0,94,0.00,,,0.00,,2013-06-19 09:34:00,
2013-06-19 04:43:00,65.0,63.0,30.01,SE,129,0.0,0.0,94,0.00,,,0.00,,2013-06-19 09:43:00,
2013-06-19 04:53:00,65.0,64.0,30.00,SE,130,0.0,0.0,95,0.00,,,0.00,,2013-06-19 09:53:00,
2013-06-19 05:01:00,65.0,64.0,30.00,SE,130,0.0,0.0,95,0.00,,,0.00,,2013-06-19 10:01:00,
2013-06-19 05:11:00,65.0,64.0,30.01,SE,130,0.0,0.0,95,0.00,,,0.00,,2013-06-19 10:11:00,
2013-06-19 05:22:00,64.0,63.0,30.01,SE,129,0.0,0.0,95,0.00,,,0.00,,2013-06-19 10:22:00,
2013-06-19 05:33:00,64.0,63.0,30.01,SE,129,0.0,0.0,95,0.00,,,0.00,,2013-06-19 10:33:00,
2013-06-19 05:42:00,64.0,63.0,30.02,SE,130,0.0,0.0,95,0.00,,,0.00,,2013-06-19 10:42:00,
2013-06-19 05:52:00,64.0,63.0,30.02,SE,130,0.0,0.0,95,0.00,,,0.00,,2013-06-19 10:52:00,
2013-06-19 06:02:00,64.0,63.0,30.02,SE,130,0.0,0.0,95,0.00,,,0.00,,2013-06-19 11:02:00,
2013-06-19 06:11:00,64.0,63.0,30.02,SE,130,0.0,0.0,95,0.00,,,0.00,,2013-06-19 11:11:00,
2013-06-19 06:22:00,64.0,63.0,30.02,SE,130,0.0,0.0,96,0.00,,,0.00,,2013-06-19 11:22:00,
2013-06-19 06:33:00,64.0,63.0,30.02,SE,130,0.0,0.0,96,0.00,,,0.00,,2013-06-19 11:33:00,
2013-06-19 06:42:00,64.0,63.0,30.03,SE,130,0.0,0.0,96,0.00,,,0.00,,2013-06-19 11:42:00,
2013-06-19 06:54:00,64.0,63.0,30.03,SE,130,0.0,0.0,96,0.00,,,0.00,,2013-06-19 11:54:00,
2013-06-19 07:01:00,64.0,63.0,30.03,SE,130,0.0,0.0,96,0.00,,,0.00,,2013-06-19 12:01:00,
2013-06-19 07:12:00,64.0,63.0,30.03,SE,130,0.0,0.0,96,0.00,,,0.00,,2013-06-19 12:12:00,
2013-06-19 07:22:00,65.0,64.0,30.03,SE,129,0.0,0.0,96,0.00,,,0.00,,2013-06-19 12:22:00,
2013-06-19 07:34:00,65.0,64.0,30.03,SE,129,0.0,0.0,96,0.00,,,0.00,,2013-06-19 12:34:00,
2013-06-19 07:44:00,66.0,65.0,30.03,SE,128,0.0,1.0,97,0.00,,,0.00,,2013-06-19 12:44:00,
2013-06-19 07:52:00,66.0,65.0,30.03,South,184,0.0,1.0,96,0.00,,,0.00,,2013-06-19 12:52:00,
2013-06-19 08:02:00,66.0,65.0,30.03,South,184,0.0,1.0,96,0.00,,,0.00,,2013-06-19 13:02:00,
2013-06-19 08:11:00,67.0,66.0,30.04,East,95,0.0,2.0,96,0.00,,,0.00,,2013-06-19 13:11:00,
2013-06-19 08:22:00,69.0,67.0,30.05,SSW,200,0.0,2.0,94,0.00,,,0.00,,2013-06-19 13:22:00,
2013-06-19 08:33:00,69.0,67.0,30.05,SSW,200,0.0,2.0,94,0.00,,,0.00,,2013-06-19 13:33:00,
2013-06-19 08:42:00,70.0,67.0,30.05,SE,138,1.0,3.0,91,0.00,,,0.00,,2013-06-19 13:42:00,
2013-06-19 08:53:00,72.0,68.0,30.06,South,191,0.0,2.0,88,0.00,,,0.00,,2013-06-19 13:53:00,
2013-06-19 09:02:00,72.0,68.0,30.06,South,191,0.0,2.0,88,0.00,,,0.00,,2013-06-19 14:02:00,
2013-06-19 09:11:00,73.0,68.0,30.06,WSW,246,1.0,4.0,84,0.00,,,0.00,,2013-06-19 14:11:00,
2013-06-19 09:22:00,74.0,68.0,30.06,SSW,197,0.0,3.0,83,0.00,,,0.00,,2013-06-19 14:22:00,
2013-06-19 09:33:00,74.0,68.0,30.06,SSW,197,0.0,3.0,83,0.00,,,0.00,,2013-06-19 14:33:00,
2013-06-19 09:43:00,76.0,68.0,30.07,South,181,1.0,7.0,77,0.00,,,0.00,,2013-06-19 14:43:00,
2013-06-19 09:52:00,79.0,70.0,30.06,SSW,197,2.0,5.0,73,0.00,,,0.00,,2013-06-19 14:52:00,
2013-06-19 10:01:00,79.0,70.0,30.06,SSW,197,2.0,5.0,73,0.00,,,0.00,,2013-06-19 15:01:00,
2013-06-19 10:11:00,80.0,70.0,30.06,SSW,205,1.0,4.0,72,0.00,,,0.00,,2013-06-19 15:11:00,
2013-06-19 10:22:00,80.0,69.0,30.04,SSE,158,2.0,6.0,69,0.00,,,0.00,,2013-06-19 15:22:00,
2013-06-19 10:33:00,80.0,69.0,30.04,SSE,158,2.0,6.0,69,0.00,,,0.00,,2013-06-19 15:33:00,
2013-06-19 10:42:00,81.0,70.0,30.04,SSW,213,1.0,7.0,69,0.00,,,0.00,,2013-06-19 15:42:00,
2013-06-19 10:53:00,82.0,71.0,30.03,SSE,153,0.0,5.0,69,0.00,,,0.00,,2013-06-19 15:53:00,
2013-06-19 11:01:00,82.0,71.0,30.03,SSE,153,0.0,5.0,69,0.00,,,0.00,,2013-06-19 16:01:00,
2013-06-19 11:11:00,82.0,69.0,30.04,SE,131,2.0,7.0,65,0.00,,,0.00,,2013-06-19 16:11:00,
2013-06-19 11:22:00,82.0,69.0,30.04,South,191,2.0,9.0,65,0.00,,,0.00,,2013-06-19 16:22:00,
2013-06-19 11:34:00,82.0,69.0,30.04,South,191,2.0,9.0,65,0.00,,,0.00,,2013-06-19 16:34:00,
2013-06-19 11:43:00,82.0,69.0,30.04,SSW,203,4.0,8.0,64,0.00,,,0.00,,2013-06-19 16:43:00,
2013-06-19 11:52:00,83.0,70.0,30.04,West,271,1.0,6.0,64,0.00,,,0.00,,2013-06-19 16:52:00,
2013-06-19 12:02:00,83.0,70.0,30.04,West,271,1.0,6.0,64,0.00,,,0.00,,2013-06-19 17:02:00,
2013-06-19 12:12:00,83.0,70.0,30.04,West,271,1.0,6.0,64,0.00,,,0.00,,2013-06-19 17:12:00,
2013-06-19 12:22:00,84.0,69.0,30.04,SSE,148,3.0,8.0,61,0.00,,,0.00,,2013-06-19 17:22:00,
2013-06-19 12:34:00,84.0,69.0,30.04,SSE,148,3.0,8.0,61,0.00,,,0.00,,2013-06-19 17:34:00,
2013-06-19 12:43:00,85.0,70.0,30.03,ESE,123,2.0,8.0,60,0.00,,,0.00,,2013-06-19 17:43:00,
2013-06-19 12:53:00,85.0,69.0,30.03,East,84,1.0,8.0,59,0.00,,,0.00,,2013-06-19 17:53:00,
2013-06-19 13:01:00,85.0,69.0,30.03,East,84,1.0,8.0,59,0.00,,,0.00,,2013-06-19 18:01:00,
2013-06-19 13:11:00,84.0,69.0,30.02,SSW,197,2.0,8.0,61,0.00,,,0.00,,2013-06-19 18:11:00,
2013-06-19 13:23:00,84.0,70.0,30.03,South,170,1.0,7.0,62,0.00,,,0.00,,2013-06-19 18:23:00,
2013-06-19 13:33:00,84.0,70.0,30.03,South,170,1.0,7.0,62,0.00,,,0.00,,2013-06-19 18:33:00,
2013-06-19 13:44:00,85.0,69.0,30.03,West,276,1.0,10.0,59,0.00,,,0.00,,2013-06-19 18:44:00,
2013-06-19 13:53:00,86.0,69.0,30.03,East,89,2.0,7.0,57,0.00,,,0.00,,2013-06-19 18:53:00,
2013-06-19 14:01:00,86.0,69.0,30.03,East,89,2.0,7.0,57,0.00,,,0.00,,2013-06-19 19:01:00,
2013-06-19 14:11:00,86.0,69.0,30.02,SE,125,3.0,11.0,57,0.00,,,0.00,,2013-06-19 19:11:00,
2013-06-19 14:22:00,86.0,70.0,30.01,SE,138,3.0,7.0,59,0.00,,,0.00,,2013-06-19 19:22:00,
2013-06-19 14:32:00,86.0,70.0,30.01,SE,138,3.0,7.0,59,0.00,,,0.00,,2013-06-19 19:32:00,
2013-06-19 14:43:00,85.0,69.0,30.01,SW,224,3.0,11.0,58,0.00,,,0.00,,2013-06-19 19:43:00,
2013-06-19 14:52:00,85.0,69.0,30.01,WSW,248,1.0,8.0,58,0.00,,,0.00,,2013-06-19 19:52:00,
2013-06-19 15:02:00,85.0,69.0,30.01,WSW,248,1.0,8.0,58,0.00,,,0.00,,2013-06-19 20:02:00,
2013-06-19 15:11:00,86.0,67.0,30.01,NE,51,3.0,7.0,54,0.00,,,0.00,,2013-06-19 20:11:00,
2013-06-19 15:22:00,86.0,67.0,30.00,South,186,4.0,8.0,53,0.00,,,0.00,,2013-06-19 20:22:00,
2013-06-19 15:33:00,86.0,67.0,30.00,South,186,4.0,8.0,53,0.00,,,0.00,,2013-06-19 20:33:00,
2013-06-19 15:42:00,86.0,67.0,30.00,South,186,4.0,8.0,53,0.00,,,0.00,,2013-06-19 20:42:00,
2013-06-19 15:52:00,86.0,66.0,29.99,SSW,212,1.0,9.0,52,0.00,,,0.00,,2013-06-19 20:52:00,
2013-06-19 16:02:00,86.0,66.0,29.99,SSW,212,1.0,9.0,52,0.00,,,0.00,,2013-06-19 21:02:00,
2013-06-19 16:11:00,85.0,68.0,30.00,ESE,110,1.0,8.0,56,0.00,,,0.00,,2013-06-19 21:11:00,
2013-06-19 16:22:00,85.0,68.0,29.98,SSE,150,2.0,7.0,56,0.00,,,0.00,,2013-06-19 21:22:00,
2013-06-19 16:33:00,85.0,68.0,29.98,SSE,150,2.0,7.0,56,0.00,,,0.00,,2013-06-19 21:33:00,
2013-06-19 16:44:00,85.0,67.0,29.98,WSW,245,2.0,6.0,55,0.00,,,0.00,,2013-06-19 21:44:00,
2013-06-19 16:52:00,85.0,69.0,29.97,ENE,74,1.0,6.0,58,0.00,,,0.00,,2013-06-19 21:52:00,
2013-06-19 17:01:00,85.0,69.0,29.97,ENE,74,1.0,6.0,58,0.00,,,0.00,,2013-06-19 22:01:00,
2013-06-19 17:11:00,85.0,68.0,29.96,West,259,2.0,8.0,57,0.00,,,0.00,,2013-06-19 22:11:00,
2013-06-19 17:22:00,85.0,69.0,29.96,ESE,105,1.0,4.0,58,0.00,,,0.00,,2013-06-19 22:22:00,
2013-06-19 17:34:00,85.0,69.0,29.96,ESE,105,1.0,4.0,58,0.00,,,0.00,,2013-06-19 22:34:00,
2013-06-19 17:43:00,85.0,69.0,29.96,ESE,106,1.0,7.0,59,0.00,,,0.00,,2013-06-19 22:43:00,
2013-06-19 17:53:00,85.0,69.0,29.95,NNE,18,2.0,7.0,58,0.00,,,0.00,,2013-06-19 22:53:00,
2013-06-19 18:02:00,85.0,69.0,29.95,NNE,18,2.0,7.0,58,0.00,,,0.00,,2013-06-19 23:02:00,
2013-06-19 18:12:00,84.0,68.0,29.96,ESE,109,1.0,6.0,58,0.00,,,0.00,,2013-06-19 23:12:00,
2013-06-19 18:23:00,84.0,69.0,29.96,East,84,0.0,4.0,61,0.00,,,0.00,,2013-06-19 23:23:00,
2013-06-19 18:33:00,84.0,69.0,29.96,East,84,0.0,4.0,61,0.00,,,0.00,,2013-06-19 23:33:00,
2013-06-19 18:43:00,84.0,69.0,29.96,South,177,0.0,4.0,60,0.00,,,0.00,,2013-06-19 23:43:00,
2013-06-19 18:52:00,84.0,69.0,29.96,SE,131,0.0,4.0,60,0.00,,,0.00,,2013-06-19 23:52:00,
2013-06-19 19:01:00,84.0,69.0,29.96,SE,131,0.0,4.0,60,0.00,,,0.00,,2013-06-20 00:01:00,
2013-06-19 19:12:00,84.0,69.0,29.96,East,90,1.0,6.0,61,0.00,,,0.00,,2013-06-20 00:12:00,
2013-06-19 19:22:00,84.0,69.0,29.96,South,186,0.0,4.0,60,0.00,,,0.00,,2013-06-20 00:22:00,
2013-06-19 19:33:00,84.0,69.0,29.96,South,186,0.0,4.0,60,0.00,,,0.00,,2013-06-20 00:33:00,
2013-06-19 19:44:00,84.0,69.0,29.96,East,96,0.0,4.0,60,0.00,,,0.00,,2013-06-20 00:44:00,
2013-06-19 19:52:00,84.0,69.0,29.96,East,96,0.0,4.0,60,0.00,,,0.00,,2013-06-20 00:52:00,
2013-06-19 20:02:00,84.0,69.0,29.96,East,96,0.0,4.0,60,0.00,,,0.00,,2013-06-20 01:02:00,
2013-06-19 20:11:00,83.0,68.0,29.96,East,100,1.0,2.0,61,0.00,,,0.00,,2013-06-20 01:11:00,
2013-06-19 20:22:00,83.0,70.0,29.96,SE,135,0.0,1.0,64,0.00,,,0.00,,2013-06-20 01:22:00,
2013-06-19 20:33:00,83.0,70.0,29.96,SE,135,0.0,1.0,64,0.00,,,0.00,,2013-06-20 01:33:00,
2013-06-19 20:44:00,83.0,70.0,29.96,SE,135,0.0,1.0,64,0.00,,,0.00,,2013-06-20 01:44:00,
2013-06-19 20:52:00,81.0,70.0,29.96,South,181,0.0,0.0,70,0.00,,,0.00,,2013-06-20 01:52:00,
2013-06-19 21:02:00,81.0,70.0,29.96,South,181,0.0,0.0,70,0.00,,,0.00,,2013-06-20 02:02:00,
2013-06-19 21:11:00,80.0,70.0,29.96,SE,137,0.0,2.0,71,0.00,,,0.00,,2013-06-20 02:11:00,
2013-06-19 21:24:00,80.0,70.0,29.96,SE,141,0.0,1.0,72,0.00,,,0.00,,2013-06-20 02:24:00,
2013-06-19 21:33:00,80.0,70.0,29.96,SE,141,0.0,1.0,72,0.00,,,0.00,,2013-06-20 02:33:00,
2013-06-19 21:43:00,79.0,70.0,29.96,SE,141,0.0,0.0,73,0.00,,,0.00,,2013-06-20 02:43:00,
2013-06-19 21:52:00,79.0,70.0,29.98,SW,224,0.0,0.0,73,0.00,,,0.00,,2013-06-20 02:52:00,
2013-06-19 22:02:00,79.0,70.0,29.98,SW,224,0.0,0.0,73,0.00,,,0.00,,2013-06-20 03:02:00,
2013-06-19 22:11:00,78.0,69.0,29.98,SE,141,0.0,0.0,74,0.00,,,0.00,,2013-06-20 03:11:00,
2013-06-19 22:22:00,78.0,69.0,29.99,SE,139,0.0,2.0,75,0.00,,,0.00,,2013-06-20 03:22:00,
2013-06-19 22:33:00,78.0,69.0,29.99,SE,139,0.0,2.0,75,0.00,,,0.00,,2013-06-20 03:33:00,
2013-06-19 22:43:00,77.0,68.0,30.00,WSW,257,0.0,1.0,75,0.00,,,0.00,,2013-06-20 03:43:00,
2013-06-19 22:53:00,78.0,69.0,30.01,SSW,207,0.0,3.0,74,0.00,,,0.00,,2013-06-20 03:53:00,
2013-06-19 23:01:00,78.0,69.0,30.01,SSW,207,0.0,3.0,74,0.00,,,0.00,,2013-06-20 04:01:00,
2013-06-19 23:11:00,78.0,69.0,30.01,NW,318,0.0,4.0,73,0.00,,,0.00,,2013-06-20 04:11:00,
2013-06-19 23:22:00,78.0,69.0,30.01,SSE,150,0.0,4.0,73,0.00,,,0.00,,2013-06-20 04:22:00,
2013-06-19 23:33:00,78.0,69.0,30.01,SSE,150,0.0,4.0,73,0.00,,,0.00,,2013-06-20 04:33:00,
2013-06-19 23:43:00,77.0,68.0,30.01,South,177,0.0,5.0,73,0.00,,,0.00,,2013-06-20 04:43:00,
2013-06-19 23:53:00,77.0,68.0,30.01,SE,124,0.0,4.0,74,0.00,,,0.00,,2013-06-20 04:53:00,